Flag Weather past 2 weeks in Oshawa, Ontario, Canada

Now
41 °F

Light rain. Low clouds.


Feels Like: 36 °F
Forecast: N/A
Wind: 8 mph from Northeast

Location: Toronto Buttonville

Current Time: Oct 31, 2014 at 7:50:00 PM

Latest Report: Oct 31, 2014 at 7:00 PM


Visibility: 7 mi

Pressure: 29.98 "Hg

Humidity: 100%

Dew point: 41 °F

Location of OshawaLocation

Historic Weather in Oshawa — Graph

°F

Oshawa temperature yesterday

Maximum temperature yesterday: 48 °F (at 2:00 PM)
Minimum temperature yesterday: 39 °F (at 4:00 AM)
Average temperature yesterday: 43 °F

Past Weeks' High & Low Weather Summary

 TemperatureHumidityPressure
High68 °F (Oct 28, 2:00 PM)100% (Oct 16, 7:00 PM)30.29 "Hg (Oct 16, 7:00 PM)
Low34 °F (Oct 27, 5:00 AM)42% (Oct 24, 4:00 PM)29.48 "Hg (Oct 18, 12:00 AM)
Average48 °F78%29.90 "Hg
* Reported Oct 16 6:00 PM — Oct 31 6:00 PM, Oshawa, Weather by CustomWeather, © 2014

Note: Actual official high and low records may vary slightly from our data, if they occured in-between our weather recording intervals... More about our weather records

Advertising

Oshawa weather history for previous 24 hours

 ConditionsComfort  
Time TempWeatherWind HumidityBarometerVisibility
6:00 PM
Oct 31
41 °FLight rain. Low clouds.9 mph100%29.96 "Hg7 mi
5:00 PM43 °FLight rain. Low clouds.6 mph93%29.94 "Hg7 mi
4:00 PM43 °FLight rain. Low clouds.9 mph93%29.93 "Hg8 mi
3:00 PM43 °FSprinkles. Mostly cloudy.8 mph93%29.93 "Hg8 mi
2:00 PM43 °FSprinkles. Low clouds.5 mph93%29.93 "Hg9 mi
1:00 PM43 °FSprinkles. Low clouds.6 mph93%29.94 "Hg9 mi
12:00 PM43 °FSprinkles. Low clouds.7 mph93%29.96 "Hg9 mi
11:00 AM43 °FSprinkles. Low clouds.10 mph93%29.96 "Hg8 mi
10:00 AM43 °FSprinkles. More clouds than sun.8 mph93%29.97 "Hg8 mi
9:53 AMN/ASprinkles.7 mphN/AN/A9 mi
9:00 AM41 °FLight rain. Overcast.5 mph93%29.98 "Hg9 mi
8:00 AM41 °FLight rain. Overcast.5 mph93%29.97 "Hg9 mi
7:00 AM41 °FSprinkles. Overcast.5 mph93%29.97 "Hg10 mi
6:00 AM41 °FSprinkles. Overcast.3 mph93%29.97 "Hg12 mi
5:00 AM41 °FSprinkles. Overcast.3 mph93%29.98 "Hg12 mi
4:00 AM41 °FSprinkles. Overcast.2 mph100%29.99 "Hg12 mi
3:00 AM41 °FSprinkles. Overcast.No wind93%30.00 "Hg12 mi
2:00 AM41 °FOvercast.No wind93%30.00 "Hg15 mi
1:00 AM41 °FOvercast.No wind93%30.01 "Hg15 mi
12:00 AM41 °FOvercast.No wind93%30.03 "Hg15 mi
11:00 PM
Oct 30
41 °FOvercast.No wind87%30.03 "Hg15 mi
10:00 PM43 °FOvercast.2 mph81%30.05 "Hg15 mi
9:00 PM45 °FOvercast.2 mph71%30.05 "Hg15 mi
8:00 PM45 °FMostly cloudy.2 mph66%30.06 "Hg15 mi
7:00 PM46 °FPartly sunny.3 mph62%30.06 "Hg15 mi
Weather by CustomWeather, © 2014

See weather overviewHow to use our weather pages